Change the Weather History Date:

Friday, April 5, 2013

  Actual Average Record
Temperature  
Mean Temperature 72 °F -  
Max Temperature 80 °F 78 °F 82 °F (1981)
Min Temperature 63 °F 65 °F 48 °F (1989)
Cooling Degree Days 6    
Growing Degree Days 22 (Base 50)    
Moisture  
Dew Point 63 °F    
Average Humidity 74    
Maximum Humidity 90    
Minimum Humidity 52    
Precipitation  
Precipitation 0.01 in - - ()
Sea Level Pressure  
Sea Level Pressure 30.10 in    
Wind  
Wind Speed 6 mph (NE)    
Max Wind Speed 12 mph    
Max Gust Speed 18 mph    
Visibility 10 miles    
Events      
Averages and records for this station are not official NWS values.
T = Trace of Precipitation, MM = Missing Value Source: NWS Daily Summary

Daily Weather History Graph

Daily Weather History Graph

Search for Another Location

Airport or City:

Trip Planner

Search our weather history database for the weather conditions in past years. The results will help you decide how hot, cold, wet, or windy it might be!

Date:

Astronomy

Apr. 05, 2013 Rise Set
Actual Time 6:17 AM HST 6:44 PM HST
Civil Twilight 5:55 AM HST 7:06 PM HST
Nautical Twilight 5:29 AM HST 7:33 PM HST
Astronomical Twilight 5:02 AM HST 7:59 PM HST
Moon 2:58 AM HST (4/5) 2:50 PM HST (4/5)
Length of Visible Light 13h 11m
Length of Day
12h 26m
Waning Crescent, 21% of the Moon is Illuminated
Apr 5
Waning Crescent
Apr 9
New
Apr 18
First Quarter
Apr 25
Full
May 2
Last Quarter

Hourly Weather History & Observations

Time (HST) Temp. Heat Index Dew Point Humidity Pressure Visibility Wind Dir Wind Speed Gust Speed Precip Events Conditions
12:54 AM 66.9 °F - 61.0 °F 81% 30.08 in 10.0 mi NE 5.8 mph - N/A   Clear
1:54 AM 66.9 °F - 61.0 °F 81% 30.06 in 10.0 mi NNE 8.1 mph - N/A   Clear
2:54 AM 68.0 °F - 61.0 °F 78% 30.05 in 10.0 mi NNE 8.1 mph - N/A   Clear
3:54 AM 64.9 °F - 60.1 °F 84% 30.05 in 10.0 mi ENE 3.5 mph - N/A   Clear
4:54 AM 64.9 °F - 59.0 °F 81% 30.06 in 10.0 mi NNE 5.8 mph - N/A   Clear
5:54 AM 63.0 °F - 59.0 °F 87% 30.07 in 9.0 mi East 4.6 mph - N/A   Clear
6:54 AM 63.0 °F - 57.9 °F 84% 30.10 in 8.0 mi East 4.6 mph - N/A   Clear
7:54 AM 71.1 °F - 61.0 °F 70% 30.12 in 10.0 mi Calm Calm - N/A   Clear
8:54 AM 75.0 °F - 60.1 °F 60% 30.13 in 10.0 mi Calm Calm - N/A   Clear
9:54 AM 77.0 °F - 59.0 °F 54% 30.13 in 10.0 mi South 3.5 mph - N/A   Clear
10:54 AM 78.1 °F - 62.1 °F 58% 30.13 in 10.0 mi South 9.2 mph - N/A   Partly Cloudy
11:54 AM 79.0 °F - 61.0 °F 54% 30.11 in 10.0 mi Calm Calm - N/A   Partly Cloudy
12:54 PM 79.0 °F - 60.1 °F 52% 30.09 in 10.0 mi SE 4.6 mph - N/A   Clear
1:54 PM 79.0 °F - 63.0 °F 58% 30.07 in 10.0 mi NNE 8.1 mph - N/A   Mostly Cloudy
2:54 PM 80.1 °F 81.5 °F 63.0 °F 56% 30.05 in 10.0 mi NNE 11.5 mph 18.4 mph N/A   Scattered Clouds
3:54 PM 77.0 °F - 64.0 °F 64% 30.05 in 10.0 mi NNE 11.5 mph 17.3 mph N/A   Partly Cloudy
4:54 PM 75.9 °F - 64.0 °F 67% 30.06 in 10.0 mi NNE 10.4 mph - N/A   Scattered Clouds
5:54 PM 73.9 °F - 64.9 °F 73% 30.07 in 10.0 mi NNE 8.1 mph - N/A   Partly Cloudy
6:54 PM 71.1 °F - 64.9 °F 81% 30.10 in 10.0 mi NNE 6.9 mph - N/A   Clear
7:54 PM 71.1 °F - 66.0 °F 84% 30.13 in 10.0 mi NE 6.9 mph - N/A   Partly Cloudy
8:23 PM 71.6 °F - 66.2 °F 83% 30.12 in 10.0 mi NNE 10.4 mph - N/A   Partly Cloudy
8:54 PM 71.1 °F - 66.9 °F 87% 30.14 in 10.0 mi NNE 9.2 mph - N/A   Clear
9:02 PM 69.8 °F - 66.2 °F 88% 30.13 in 10.0 mi NNE 8.1 mph - N/A   Partly Cloudy
9:54 PM 70.0 °F - 64.9 °F 84% 30.16 in 10.0 mi NE 6.9 mph - N/A   Partly Cloudy
10:54 PM 71.1 °F - 66.9 °F 87% 30.16 in 10.0 mi NNE 10.4 mph 16.1 mph N/A   Mostly Cloudy
11:54 PM 71.1 °F - 68.0 °F 90% 30.14 in 10.0 mi NE 8.1 mph - 0.01 in   Mostly Cloudy